Home > Weather > Lethbridge > Past weeks

Flag for Canada Weather for the Past 2 Weeks in Lethbridge, Alberta, Canada

Now
30 °F

Ice fog.


Feels Like: 23 °F
Forecast: 31 / 52 °F
Wind: 7 mph from East

Location: Lethbridge

Current Time: Feb 12, 2016 at 7:40:38 AM

Latest Report: Feb 12, 2016 at 7:00 AM


Visibility: 2 mi

Pressure: 30.31 "Hg (27.17 "Hg at 872m altitude)

Humidity: 100%

Dew point: 30 °F

Location of LethbridgeLocation

Historic Weather in Lethbridge — Graph

°F

Lethbridge Temperature Yesterday

Maximum temperature yesterday: 46 °F (at 12:00 AM)
Minimum temperature yesterday: 23 °F (at 3:45 AM)
Average temperature yesterday: 33 °F

High & Low Weather Summary for the Past Weeks

 TemperatureHumidityPressure
High63 °F (Feb 9, 12:00 PM)100% (Jan 31, 8:00 AM)30.55 "Hg (Jan 31, 8:00 AM)
Low10 °F (Feb 3, 12:00 AM)19% (Feb 7, 1:00 PM)29.47 "Hg (Jan 29, 11:00 PM)
Average36 °F62%30.05 "Hg
* Reported Jan 28 6:00 AM — Feb 12 6:00 AM, Lethbridge, Weather by CustomWeather, © 2016

Note: Actual official high and low records may vary slightly from our data, if they occured in-between our weather recording intervals... More about our weather records

Advertising

Lethbridge Weather History for the Previous 24 Hours

 ConditionsComfort  
Time TempWeatherWind HumidityBarometerVisibility
6:00 AM
Fri, Feb 12
28 °FIce fog.7 mph100%30.32 "Hg1 mi
5:45 AM28 °FIce fog.8 mph100%30.32 "Hg1 mi
5:00 AM28 °FIce fog.9 mph100%30.33 "Hg1 mi
4:03 AM28 °FIce fog.9 mph100%30.34 "Hg1 mi
3:57 AM28 °FSnow. Ice fog.9 mph100%30.34 "Hg1 mi
3:04 AM28 °FIce fog.7 mph100%30.36 "Hg2 mi
2:59 AM28 °FIce fog.6 mph100%30.36 "Hg2 mi
2:00 AM28 °FIce fog.8 mph100%30.36 "Hg4 mi
1:00 AM28 °FIce fog.7 mph100%30.37 "Hg4 mi
12:46 AM28 °FIce fog.7 mph100%30.40 "Hg5 mi
12:00 AM28 °FPartly cloudy.7 mph100%30.40 "Hg9 mi
11:00 PM
Thu, Feb 11
30 °FPassing clouds.3 mph100%30.40 "Hg8 mi
10:00 PM28 °FPassing clouds.2 mph100%30.40 "Hg15 mi
9:00 PM32 °FPassing clouds.6 mph93%30.39 "Hg15 mi
8:00 PM34 °FPassing clouds.7 mph87%30.37 "Hg15 mi
7:00 PM36 °FOvercast.8 mph87%30.36 "Hg15 mi
6:00 PM37 °FPassing clouds.8 mph81%30.35 "Hg30 mi
5:00 PM43 °FPartly sunny.7 mph71%30.34 "Hg40 mi
4:00 PM46 °FPartly sunny.6 mph62%30.32 "Hg40 mi
3:00 PM46 °FBroken clouds.9 mph62%30.31 "Hg40 mi
2:00 PM46 °FBroken clouds.13 mph62%30.30 "Hg40 mi
1:00 PM43 °FBroken clouds.9 mph76%30.28 "Hg40 mi
12:00 PM34 °FPartly sunny.6 mph93%30.30 "Hg40 mi
11:00 AM30 °FBroken clouds.9 mph100%30.31 "Hg15 mi
10:55 AM30 °FPartly sunny.8 mph100%30.31 "Hg10 mi
10:00 AM28 °FIce fog.10 mph100%30.29 "Hg1 mi
9:03 AM27 °FIce fog.9 mph100%30.24 "Hg1 mi
8:00 AM27 °FIce fog.2 mph100%30.19 "Hg0 mi
7:00 AM27 °FIce fog.6 mph100%30.18 "Hg0 mi
Weather by CustomWeather, © 2016

See weather overviewHow to use our weather pages